This is the latest recevied weather packets stored in our database for station/object OK1LPD-5. If no packets are shown the sender has not sent any weather packets the latest 10 day(s).
| Time | Temp. | Humidity | Pressure | Rain* | Wind** | Luminosity | Snow |
|---|---|---|---|---|---|---|---|
| 1777801809 | 25° C | 37% | 1010.3 hPa | 0 mm | - | - | - |
| 1777801210 | 25° C | 37% | 1010.6 hPa | 0 mm | - | - | - |
| 1777800609 | 25° C | 41% | 1011 hPa | 0 mm | - | - | - |
| 1777800009 | 24.44° C | 42% | 1011.1 hPa | 0 mm | - | - | - |
| 1777799410 | 23.89° C | 43% | 1011.6 hPa | 0 mm | - | - | - |
| 1777798812 | 23.89° C | 43% | 1012 hPa | 0 mm | - | - | - |
| 1777798210 | 22.78° C | 46% | 1012.2 hPa | 0 mm | - | - | - |
| 1777797610 | 23.33° C | 44% | 1012.6 hPa | 0 mm | - | - | - |
| 1777797009 | 23.33° C | 47% | 1012.9 hPa | 0 mm | - | - | - |
| 1777796409 | 22.22° C | 47% | 1013.2 hPa | 0 mm | - | - | - |
| 1777795809 | 22.78° C | 49% | 1013.5 hPa | 0 mm | - | - | - |
| 1777795210 | 21.67° C | 56% | 1013.7 hPa | 0 mm | - | - | - |
| 1777794610 | 20.56° C | 59% | 1013.7 hPa | 0 mm | - | - | - |
| 1777794012 | 18.89° C | 64% | 1013.7 hPa | 0 mm | - | - | - |
| 1777793412 | 16.11° C | 68% | 1013.9 hPa | 0 mm | - | - | - |
| 1777792810 | 15.56° C | 71% | 1014 hPa | 0 mm | - | - | - |
| 1777792211 | 15° C | 72% | 1014.2 hPa | 0 mm | - | - | - |
| 1777791612 | 14.44° C | 77% | 1014.4 hPa | 0 mm | - | - | - |
| 1777791010 | 13.89° C | 79% | 1014.6 hPa | 0 mm | - | - | - |
| 1777790408 | 13.33° C | 81% | 1014.8 hPa | 0 mm | - | - | - |
| 1777789811 | 12.78° C | 82% | 1014.8 hPa | 0 mm | - | - | - |
| 1777789210 | 13.33° C | 83% | 1014.9 hPa | 0 mm | - | - | - |
| 1777788611 | 12.22° C | 86% | 1014.9 hPa | 0 mm | - | - | - |
| 1777788010 | 11.67° C | 91% | 1014.8 hPa | 0 mm | - | - | - |
| 1777787409 | 10° C | 94% | 1014.8 hPa | 0 mm | - | - | - |
* Rain latest hour (hover to see other rain measurements)
** Current wind speed in m/s (hover to see current wind gust speed)